Location: Artiguedieu
(43.5000°N, 0.5454°E)
Time: 18:34:42
(UTC+00:00)

Transit 2A Rocket - Pass Details

Date: 01 August 2021
Orbit: 586 x 916 km, 66.7° (Epoch: 21 September)

Event Time Altitude Azimuth Distance (km) Brightness Sun altitude
Rises 15:31:37 0° 257° (WSW) 2,881 8.9 39.6°
Reaches altitude 10° 15:34:28 10° 277° (W) 2,023 8.3 39.1°
Maximum altitude 15:37:35 18° 321° (NW) 1,620 7.2 38.5°
Drops below altitude 10° 15:40:53 10° 4° (N) 2,155 7.3 38.0°
Sets 15:44:04 0° 23° (NNE) 3,148 7.9 37.4°
